2023/01/30 00:00:00,79.4,-3.8
2023/01/30 00:10:00,79.3,-4.4
2023/01/30 00:20:00,79.2,-4.6
2023/01/30 00:30:00,79.2,-4.8
2023/01/30 00:40:00,79.1,-4.8
2023/01/30 00:50:00,79.1,-4.8
2023/01/30 01:00:00,79.0,-4.2
2023/01/30 01:10:00,78.9,-4.4
2023/01/30 01:20:00,78.9,-4.6
2023/01/30 01:30:00,78.8,-4.3
2023/01/30 01:40:00,78.7,-4.2
2023/01/30 01:50:00,78.7,-4.4
2023/01/30 02:00:00,78.8,-3.7
2023/01/30 02:10:00,79.6,-3.8
2023/01/30 02:20:00,79.7,-3.8
2023/01/30 02:30:00,79.7,-4.1
2023/01/30 02:40:00,79.5,-4.3
2023/01/30 02:50:00,79.5,-4.1
2023/01/30 03:00:00,79.6,-4.4
2023/01/30 03:10:00,79.5,-4.3
2023/01/30 03:20:00,79.4,-4.1
2023/01/30 03:30:00,79.4,-3.9
2023/01/30 03:40:00,79.8,-3.8
2023/01/30 03:50:00,80.0,-3.9
2023/01/30 04:00:00,79.9,-3.7
2023/01/30 04:10:00,79.8,-3.7
2023/01/30 04:20:00,79.7,-3.7
2023/01/30 04:30:00,80.3,-3.9
2023/01/30 04:40:00,80.9,-3.4
2023/01/30 04:50:00,80.8,-3.7
2023/01/30 05:00:00,81.2,-3.3
2023/01/30 05:10:00,81.1,-2.4
2023/01/30 05:20:00,81.6,-2.6
2023/01/30 05:30:00,81.8,-2.6
2023/01/30 05:40:00,81.9,-2.6
2023/01/30 05:50:00,82.3,-2.4
2023/01/30 06:00:00,82.8,-2.6
2023/01/30 06:10:00,82.9,-2.4
2023/01/30 06:20:00,82.9,-2.4
2023/01/30 06:30:00,83.1,-2.4
2023/01/30 06:40:00,82.9,-2.4
2023/01/30 06:50:00,83.0,-2.5
2023/01/30 07:00:00,83.0,-2.1
2023/01/30 07:10:00,82.9,-2.2
2023/01/30 07:20:00,82.9,-1.7
2023/01/30 07:30:00,82.9,-2.2
2023/01/30 07:40:00,82.7,-2.1
2023/01/30 07:50:00,82.3,-2.1
2023/01/30 08:00:00,82.4,-1.9
2023/01/30 08:10:00,82.4,-1.7
2023/01/30 08:20:00,82.4,-1.7
2023/01/30 08:30:00,82.3,-1.7
2023/01/30 08:40:00,82.3,-1.9
2023/01/30 08:50:00,83.1,-1.9
2023/01/30 09:00:00,84.3,-2.3
2023/01/30 09:10:00,85.0,-2.2
2023/01/30 09:20:00,85.7,-2.1
2023/01/30 09:30:00,86.3,-2.3
2023/01/30 09:40:00,86.6,-1.9
2023/01/30 09:50:00,86.6,-2.0
2023/01/30 10:00:00,88.1,-1.4
2023/01/30 10:10:00,88.8,-1.5
2023/01/30 10:20:00,89.0,-1.7
2023/01/30 10:30:00,89.0,-1.4
2023/01/30 10:40:00,89.1,-1.6
2023/01/30 10:50:00,88.9,-1.6
2023/01/30 11:00:00,89.1,-1.9
2023/01/30 11:10:00,89.4,-2.1
2023/01/30 11:20:00,89.3,-1.6
2023/01/30 11:30:00,89.7,-1.6
2023/01/30 11:40:00,89.8,-1.6
2023/01/30 11:50:00,89.7,-1.9
2023/01/30 12:00:00,90.2,-1.7
2023/01/30 12:10:00,90.7,-1.7
2023/01/30 12:20:00,90.8,-1.8
2023/01/30 12:30:00,91.2,-1.8
2023/01/30 12:40:00,91.6,-2.0
2023/01/30 12:50:00,91.9,-1.6
2023/01/30 13:00:00,92.9,-1.5
2023/01/30 13:10:00,93.5,-2.0
2023/01/30 13:20:00,93.6,-1.7
2023/01/30 13:30:00,94.0,-1.9
2023/01/30 13:40:00,94.0,-1.7
2023/01/30 13:50:00,93.7,-1.5
2023/01/30 14:00:00,93.9,-1.8
2023/01/30 14:10:00,94.1,-1.7
2023/01/30 14:20:00,94.2,-1.4
2023/01/30 14:30:00,94.3,-1.6
2023/01/30 14:40:00,94.3,-1.8
2023/01/30 14:50:00,94.3,-1.5
2023/01/30 15:00:00,94.1,-1.4
2023/01/30 15:10:00,93.8,-1.4
2023/01/30 15:20:00,93.3,-1.7
2023/01/30 15:30:00,94.0,-2.1
2023/01/30 15:40:00,94.2,-2.1
2023/01/30 15:50:00,94.1,-1.9
2023/01/30 16:00:00,94.0,-1.4
2023/01/30 16:10:00,93.9,-1.6
2023/01/30 16:20:00,93.7,-2.0
2023/01/30 16:30:00,93.5,-1.5
2023/01/30 16:40:00,93.5,-1.8
2023/01/30 16:50:00,93.4,-2.0
2023/01/30 17:00:00,93.7,-2.6
2023/01/30 17:10:00,94.4,-2.2
2023/01/30 17:20:00,94.4,-2.3
2023/01/30 17:30:00,94.2,-2.2
2023/01/30 17:40:00,94.1,-2.2
2023/01/30 17:50:00,94.1,-2.2
2023/01/30 18:00:00,94.0,-2.3
2023/01/30 18:10:00,93.8,-2.3
2023/01/30 18:20:00,93.8,-2.2
2023/01/30 18:30:00,93.7,-2.4
2023/01/30 18:40:00,94.0,-2.4
2023/01/30 18:50:00,94.1,-2.5
2023/01/30 19:00:00,94.2,-2.0
2023/01/30 19:10:00,94.2,-2.2
2023/01/30 19:20:00,93.7,-2.5
2023/01/30 19:30:00,93.6,-2.5
2023/01/30 19:40:00,93.9,-2.5
2023/01/30 19:50:00,94.0,-2.4
2023/01/30 20:00:00,93.9,-2.6
2023/01/30 20:10:00,93.8,-2.3
2023/01/30 20:20:00,93.6,-2.4
2023/01/30 20:30:00,93.5,-2.5
2023/01/30 20:40:00,93.3,-2.4
2023/01/30 20:50:00,93.2,-2.8
2023/01/30 21:00:00,93.0,-2.4
2023/01/30 21:10:00,92.9,-2.4
2023/01/30 21:20:00,92.7,-2.7
2023/01/30 21:30:00,92.6,-2.4
2023/01/30 21:40:00,92.7,-2.6
2023/01/30 21:50:00,93.0,-2.4
2023/01/30 22:00:00,93.1,-2.5
2023/01/30 22:10:00,93.1,-2.6
2023/01/30 22:20:00,93.0,-2.7
2023/01/30 22:30:00,92.6,-2.5
2023/01/30 22:40:00,92.9,-2.3
2023/01/30 22:50:00,93.2,-2.4
2023/01/30 23:00:00,93.7,-2.6
2023/01/30 23:10:00,93.7,-2.2
2023/01/30 23:20:00,93.6,-2.4
2023/01/30 23:30:00,93.6,-2.5
2023/01/30 23:40:00,93.6,-2.6
2023/01/30 23:50:00,93.6,-2.9
